Back to catalog

STARLINK-33871

AliveCommunicationsVLEO
NORAD 63994·PAYLOAD·🇺🇸 United States

Launched May 14, 2025 from Cape Canaveral Space Force Station

Loading…

Next Passes (next 24 hours)

TLE

FreshSource: CelesTrak SupGP

Epoch: Sep 14, 2026, 13:57 UTC

1 63994C 25101A   26257.58173611 -.00065664  00000+0 -23789-2 0  2570
2 63994  43.0012  11.5241 0001317 270.3484 322.1168 15.27603618    10

Track STARLINK-33871 in real time with AllMySat

Download on the App Store